User: anonymous   Login
Location: Chandolas
(44.4033°N, 4.2533°E)
Time: 14:54:10
(UTC+00:00)
Language:

FENGYUN 3A - Orbit

View from above orbital plane
View from above orbital plane
View from above satellite
View from above satellite

Ground track
Ground track

The orbit data is extracted from the following two-line orbital elements,

1 32958U 08026A   20021.23744413 -.00000008  00000-0  15698-4 0  9998
2 32958  98.3931  14.7492 0009777  50.8613 309.3439 14.18616429603813
Epoch (UTC): 21 January 2020 05:41:55
Eccentricity: 0.0009777
inclination: 98.3931°
perigee height: 823 km
apogee height: 837 km
right ascension of ascending node: 14.7492°
argument of perigee: 50.8613°
revolutions per day: 14.18616429
mean anomaly at epoch: 309.3439°
orbit number at epoch: 60381

The dashed part of the orbit path shows where the satellite is in the earth's shadow,  

DLR